Location: Unspecified
(16.8032°N, 0.0000°E)
Time: 00:27:13
(UTC+00:00)

QB50P2 - Visible Passes

Search period start: 05 April 2026 00:00
Search period end: 15 April 2026 00:00
Orbit: 517 x 531 km, 98.1° (Epoch: 29 March)

Date Brightness Start Highest point End Pass type
(mag) Time Alt. Az. Time Alt. Az. Time Alt. Az.
5 Apr ? 04:40:56 10° NNE 04:44:29 39° E 04:48:03 10° S visible
6 Apr ? 04:28:52 10° NE 04:32:01 25° E 04:35:11 10° SSE visible
7 Apr ? 04:17:04 10° ENE 04:19:31 16° E 04:21:57 10° SE visible
8 Apr ? 04:06:16 10° E 04:06:59 10° E 04:07:41 10° ESE visible
9 Apr ? 05:24:55 10° N 05:28:29 40° WNW 05:32:03 10° SSW visible
10 Apr ? 05:12:12 10° N 05:15:58 66° WNW 05:19:44 10° SSW visible
11 Apr ? 04:59:36 10° NNE 05:03:25 76° ESE 05:07:13 10° S visible
12 Apr ? 04:47:09 10° NNE 04:50:49 46° E 04:54:29 10° S visible
13 Apr ? 04:34:52 10° NE 04:38:12 29° E 04:41:31 10° SSE visible
14 Apr ? 04:22:50 10° NE 04:25:32 19° E 04:28:16 10° SE visible
